Location: Béaulencourt
(50.0796°N, 2.8795°E)
Time: 04:34:58
(UTC+00:00)

ARIANE 6 FM1 Upper Stage - Pass Details

Date: 12 March 2026
Orbit: 525 x 604 km, 62.0° (Epoch: 17 April)

Event Time Altitude Azimuth Distance (km) Brightness Sun altitude
Exits shadow 04:22:51 20° 195° (SSW) 1,300 4.2 -17.7°
Maximum altitude 04:25:23 47° 128° (SE) 718 3.4 -17.3°
Drops below altitude 10° 04:29:15 10° 55° (NE) 1,791 6.3 -16.7°
Sets 04:31:29 0° 49° (NE) 2,677 7.3 -16.3°
